Back to catalog

QIANFAN-151

AliveCommunicationsPO
NORAD 69110·PAYLOAD·🇨🇳 China

Launched May 17, 2026 from Wenchang Space Launch Site

Loading…

Next Passes (next 24 hours)

TLE

FreshSource: Space-Track

Epoch: Sep 14, 2026, 13:41 UTC

1 69110U 26108G   26257.57058272  .00000097  00000-0  13240-3 0  9991
2 69110  89.0189  13.1146 0001817 101.8154 258.3201 13.51026639 16506

Track QIANFAN-151 in real time with AllMySat

Download on the App Store